owner,sensor,date,latitude,longitude,sea_surface_height_above_sea_level,qcFlag 
TCOON,ioos:station:TCOON:057:1,2017-12-01T00:18:00Z,28.4460,-96.3961,3.773,1111122 
TCOON,ioos:station:TCOON:057:1,2017-12-01T01:18:00Z,28.4460,-96.3961,3.773,1111122 
TCOON,ioos:station:TCOON:057:1,2017-12-01T02:18:00Z,28.4460,-96.3961,3.765,1111122 
TCOON,ioos:station:TCOON:057:1,2017-12-01T03:18:00Z,28.4460,-96.3961,3.765,1111122 
TCOON,ioos:station:TCOON:057:1,2017-12-01T04:18:00Z,28.4460,-96.3961,3.758,1111122 
TCOON,ioos:station:TCOON:057:1,2017-12-01T05:18:00Z,28.4460,-96.3961,3.759,1111122 
TCOON,ioos:station:TCOON:057:1,2017-12-01T06:18:00Z,28.4460,-96.3961,3.747,1111122 
TCOON,ioos:station:TCOON:057:1,2017-12-01T07:18:00Z,28.4460,-96.3961,3.727,1111122 
TCOON,ioos:station:TCOON:057:1,2017-12-01T08:18:00Z,28.4460,-96.3961,3.72,1111122 
TCOON,ioos:station:TCOON:057:1,2017-12-01T09:18:00Z,28.4460,-96.3961,3.694,1111122 
TCOON,ioos:station:TCOON:057:1,2017-12-01T10:18:00Z,28.4460,-96.3961,3.662,1111122 
TCOON,ioos:station:TCOON:057:1,2017-12-01T11:18:00Z,28.4460,-96.3961,3.625,1111122 
TCOON,ioos:station:TCOON:057:1,2017-12-01T12:18:00Z,28.4460,-96.3961,3.598,1111122 
TCOON,ioos:station:TCOON:057:1,2017-12-01T13:18:00Z,28.4460,-96.3961,3.577,1111122 
TCOON,ioos:station:TCOON:057:1,2017-12-01T14:18:00Z,28.4460,-96.3961,3.552,1111122 
TCOON,ioos:station:TCOON:057:1,2017-12-01T15:18:00Z,28.4460,-96.3961,3.538,1111122 
TCOON,ioos:station:TCOON:057:1,2017-12-01T16:18:00Z,28.4460,-96.3961,3.53,1111122 
TCOON,ioos:station:TCOON:057:1,2017-12-01T17:18:00Z,28.4460,-96.3961,3.562,1111122 
TCOON,ioos:station:TCOON:057:1,2017-12-01T18:18:00Z,28.4460,-96.3961,3.575,1111122 
TCOON,ioos:station:TCOON:057:1,2017-12-01T19:18:00Z,28.4460,-96.3961,3.59,1111122 
TCOON,ioos:station:TCOON:057:1,2017-12-01T20:18:00Z,28.4460,-96.3961,3.63,1111122 
TCOON,ioos:station:TCOON:057:1,2017-12-01T21:18:00Z,28.4460,-96.3961,3.671,1111122 
TCOON,ioos:station:TCOON:057:1,2017-12-01T22:18:00Z,28.4460,-96.3961,3.707,1111122 
TCOON,ioos:station:TCOON:057:1,2017-12-01T23:18:00Z,28.4460,-96.3961,3.736,1111122 
TCOON,ioos:station:TCOON:057:1,2017-12-02T00:18:00Z,28.4460,-96.3961,3.761,1111122 
TCOON,ioos:station:TCOON:057:1,2017-12-02T01:24:00Z,28.4460,-96.3961,3.775,1111122 
TCOON,ioos:station:TCOON:057:1,2017-12-02T02:18:00Z,28.4460,-96.3961,3.783,1111122 
TCOON,ioos:station:TCOON:057:1,2017-12-02T03:18:00Z,28.4460,-96.3961,3.786,1111122 
TCOON,ioos:station:TCOON:057:1,2017-12-02T04:18:00Z,28.4460,-96.3961,3.791,1111122 
TCOON,ioos:station:TCOON:057:1,2017-12-02T05:18:00Z,28.4460,-96.3961,3.803,1111122 
TCOON,ioos:station:TCOON:057:1,2017-12-02T06:18:00Z,28.4460,-96.3961,3.8,1111122 
TCOON,ioos:station:TCOON:057:1,2017-12-02T07:18:00Z,28.4460,-96.3961,3.793,1111122 
TCOON,ioos:station:TCOON:057:1,2017-12-02T08:18:00Z,28.4460,-96.3961,3.76,1111122 
TCOON,ioos:station:TCOON:057:1,2017-12-02T09:18:00Z,28.4460,-96.3961,3.734,1111122 
TCOON,ioos:station:TCOON:057:1,2017-12-02T10:18:00Z,28.4460,-96.3961,3.706,1111122 
TCOON,ioos:station:TCOON:057:1,2017-12-02T11:18:00Z,28.4460,-96.3961,3.673,1111122 
TCOON,ioos:station:TCOON:057:1,2017-12-02T12:18:00Z,28.4460,-96.3961,3.642,1111122 
TCOON,ioos:station:TCOON:057:1,2017-12-02T13:18:00Z,28.4460,-96.3961,3.607,1111122 
TCOON,ioos:station:TCOON:057:1,2017-12-02T14:18:00Z,28.4460,-96.3961,3.586,1111122 
TCOON,ioos:station:TCOON:057:1,2017-12-02T15:18:00Z,28.4460,-96.3961,3.553,1111122 
TCOON,ioos:station:TCOON:057:1,2017-12-02T16:18:00Z,28.4460,-96.3961,3.538,1111122 
TCOON,ioos:station:TCOON:057:1,2017-12-02T17:18:00Z,28.4460,-96.3961,3.532,1111122 
TCOON,ioos:station:TCOON:057:1,2017-12-02T18:18:00Z,28.4460,-96.3961,3.551,1111122 
TCOON,ioos:station:TCOON:057:1,2017-12-02T19:18:00Z,28.4460,-96.3961,3.583,1111122 
TCOON,ioos:station:TCOON:057:1,2017-12-02T20:18:00Z,28.4460,-96.3961,3.613,1111122 
TCOON,ioos:station:TCOON:057:1,2017-12-02T21:18:00Z,28.4460,-96.3961,3.653,1111122 
TCOON,ioos:station:TCOON:057:1,2017-12-02T22:18:00Z,28.4460,-96.3961,3.694,1111122 
TCOON,ioos:station:TCOON:057:1,2017-12-02T23:18:00Z,28.4460,-96.3961,3.741,1111122 
TCOON,ioos:station:TCOON:057:1,2017-12-03T00:18:00Z,28.4460,-96.3961,3.76,1111122 
TCOON,ioos:station:TCOON:057:1,2017-12-03T01:18:00Z,28.4460,-96.3961,3.781,1111122 
TCOON,ioos:station:TCOON:057:1,2017-12-03T02:18:00Z,28.4460,-96.3961,3.796,1111122 
TCOON,ioos:station:TCOON:057:1,2017-12-03T03:18:00Z,28.4460,-96.3961,3.792,1111122 
TCOON,ioos:station:TCOON:057:1,2017-12-03T04:18:00Z,28.4460,-96.3961,3.812,1111122 
TCOON,ioos:station:TCOON:057:1,2017-12-03T05:18:00Z,28.4460,-96.3961,3.812,1111122 
TCOON,ioos:station:TCOON:057:1,2017-12-03T06:18:00Z,28.4460,-96.3961,3.817,1111122 
TCOON,ioos:station:TCOON:057:1,2017-12-03T07:18:00Z,28.4460,-96.3961,3.811,1111122 
TCOON,ioos:station:TCOON:057:1,2017-12-03T08:18:00Z,28.4460,-96.3961,3.782,1111122 
TCOON,ioos:station:TCOON:057:1,2017-12-03T09:18:00Z,28.4460,-96.3961,3.758,1111122 
TCOON,ioos:station:TCOON:057:1,2017-12-03T10:18:00Z,28.4460,-96.3961,3.732,1111122 
TCOON,ioos:station:TCOON:057:1,2017-12-03T11:18:00Z,28.4460,-96.3961,3.693,1111122 
TCOON,ioos:station:TCOON:057:1,2017-12-03T12:18:00Z,28.4460,-96.3961,3.651,1111122 
TCOON,ioos:station:TCOON:057:1,2017-12-03T13:18:00Z,28.4460,-96.3961,3.62,1111122 
TCOON,ioos:station:TCOON:057:1,2017-12-03T14:18:00Z,28.4460,-96.3961,3.587,1111122 
TCOON,ioos:station:TCOON:057:1,2017-12-03T15:18:00Z,28.4460,-96.3961,3.566,1111122 
TCOON,ioos:station:TCOON:057:1,2017-12-03T16:18:00Z,28.4460,-96.3961,3.545,1111122 
TCOON,ioos:station:TCOON:057:1,2017-12-03T17:18:00Z,28.4460,-96.3961,3.534,1111122 
TCOON,ioos:station:TCOON:057:1,2017-12-03T18:18:00Z,28.4460,-96.3961,3.568,1111122 
TCOON,ioos:station:TCOON:057:1,2017-12-03T19:18:00Z,28.4460,-96.3961,3.601,1111122 
TCOON,ioos:station:TCOON:057:1,2017-12-03T20:18:00Z,28.4460,-96.3961,3.624,1111122 
TCOON,ioos:station:TCOON:057:1,2017-12-03T21:18:00Z,28.4460,-96.3961,3.674,1111122 
TCOON,ioos:station:TCOON:057:1,2017-12-03T22:18:00Z,28.4460,-96.3961,3.737,1111122 
TCOON,ioos:station:TCOON:057:1,2017-12-03T23:18:00Z,28.4460,-96.3961,3.763,1111122 
TCOON,ioos:station:TCOON:057:1,2017-12-04T00:18:00Z,28.4460,-96.3961,3.809,1111122 
TCOON,ioos:station:TCOON:057:1,2017-12-04T01:18:00Z,28.4460,-96.3961,3.84,1111122 
TCOON,ioos:station:TCOON:057:1,2017-12-04T02:18:00Z,28.4460,-96.3961,3.863,1111122 
TCOON,ioos:station:TCOON:057:1,2017-12-04T03:18:00Z,28.4460,-96.3961,3.866,1111122 
TCOON,ioos:station:TCOON:057:1,2017-12-04T04:18:00Z,28.4460,-96.3961,3.874,1111122 
TCOON,ioos:station:TCOON:057:1,2017-12-04T05:18:00Z,28.4460,-96.3961,3.89,1111122 
TCOON,ioos:station:TCOON:057:1,2017-12-04T06:24:00Z,28.4460,-96.3961,3.896,1111122 
TCOON,ioos:station:TCOON:057:1,2017-12-04T07:18:00Z,28.4460,-96.3961,3.883,1111122 
TCOON,ioos:station:TCOON:057:1,2017-12-04T08:18:00Z,28.4460,-96.3961,3.874,1111122 
TCOON,ioos:station:TCOON:057:1,2017-12-04T09:18:00Z,28.4460,-96.3961,3.849,1111122 
TCOON,ioos:station:TCOON:057:1,2017-12-04T10:18:00Z,28.4460,-96.3961,3.811,1111122 
TCOON,ioos:station:TCOON:057:1,2017-12-04T11:18:00Z,28.4460,-96.3961,3.775,1111122 
TCOON,ioos:station:TCOON:057:1,2017-12-04T12:18:00Z,28.4460,-96.3961,3.739,1111122 
TCOON,ioos:station:TCOON:057:1,2017-12-04T13:18:00Z,28.4460,-96.3961,3.703,1111122 
TCOON,ioos:station:TCOON:057:1,2017-12-04T14:18:00Z,28.4460,-96.3961,3.668,1111122 
TCOON,ioos:station:TCOON:057:1,2017-12-04T15:18:00Z,28.4460,-96.3961,3.622,1111122 
TCOON,ioos:station:TCOON:057:1,2017-12-04T16:18:00Z,28.4460,-96.3961,3.59,1111122 
TCOON,ioos:station:TCOON:057:1,2017-12-04T17:18:00Z,28.4460,-96.3961,3.573,1111122 
TCOON,ioos:station:TCOON:057:1,2017-12-04T18:18:00Z,28.4460,-96.3961,3.571,1111122 
TCOON,ioos:station:TCOON:057:1,2017-12-04T19:18:00Z,28.4460,-96.3961,3.608,1111122 
TCOON,ioos:station:TCOON:057:1,2017-12-04T20:18:00Z,28.4460,-96.3961,3.644,1111122 
TCOON,ioos:station:TCOON:057:1,2017-12-04T21:18:00Z,28.4460,-96.3961,3.683,1111122 
TCOON,ioos:station:TCOON:057:1,2017-12-04T22:18:00Z,28.4460,-96.3961,3.73,1111122 
TCOON,ioos:station:TCOON:057:1,2017-12-04T23:18:00Z,28.4460,-96.3961,3.788,1111122 
TCOON,ioos:station:TCOON:057:1,2017-12-05T00:18:00Z,28.4460,-96.3961,3.823,1111122 
TCOON,ioos:station:TCOON:057:1,2017-12-05T01:18:00Z,28.4460,-96.3961,3.871,1111122 
TCOON,ioos:station:TCOON:057:1,2017-12-05T02:18:00Z,28.4460,-96.3961,3.9,1111122 
TCOON,ioos:station:TCOON:057:1,2017-12-05T03:18:00Z,28.4460,-96.3961,3.918,1111122 
TCOON,ioos:station:TCOON:057:1,2017-12-05T04:18:00Z,28.4460,-96.3961,3.943,1111122 
TCOON,ioos:station:TCOON:057:1,2017-12-05T05:18:00Z,28.4460,-96.3961,3.952,1111122 
TCOON,ioos:station:TCOON:057:1,2017-12-05T06:18:00Z,28.4460,-96.3961,3.951,1111122 
TCOON,ioos:station:TCOON:057:1,2017-12-05T07:18:00Z,28.4460,-96.3961,3.95,1111122 
TCOON,ioos:station:TCOON:057:1,2017-12-05T08:18:00Z,28.4460,-96.3961,3.933,1111122 
TCOON,ioos:station:TCOON:057:1,2017-12-05T09:18:00Z,28.4460,-96.3961,3.913,1111122 
TCOON,ioos:station:TCOON:057:1,2017-12-05T10:18:00Z,28.4460,-96.3961,3.89,1111122 
TCOON,ioos:station:TCOON:057:1,2017-12-05T11:18:00Z,28.4460,-96.3961,3.842,1111122 
TCOON,ioos:station:TCOON:057:1,2017-12-05T12:18:00Z,28.4460,-96.3961,3.804,1111122 
TCOON,ioos:station:TCOON:057:1,2017-12-05T13:18:00Z,28.4460,-96.3961,3.769,1111122 
TCOON,ioos:station:TCOON:057:1,2017-12-05T15:30:00Z,28.4460,-96.3961,3.671,1111122 
TCOON,ioos:station:TCOON:057:1,2017-12-05T16:18:00Z,28.4460,-96.3961,3.647,1111122 
TCOON,ioos:station:TCOON:057:1,2017-12-05T17:18:00Z,28.4460,-96.3961,3.618,1111122 
TCOON,ioos:station:TCOON:057:1,2017-12-05T18:18:00Z,28.4460,-96.3961,3.595,1111122 
TCOON,ioos:station:TCOON:057:1,2017-12-05T19:18:00Z,28.4460,-96.3961,3.671,1111122 
TCOON,ioos:station:TCOON:057:1,2017-12-05T20:18:00Z,28.4460,-96.3961,3.632,1111122 
TCOON,ioos:station:TCOON:057:1,2017-12-05T21:18:00Z,28.4460,-96.3961,3.701,1111122 
TCOON,ioos:station:TCOON:057:1,2017-12-05T22:18:00Z,28.4460,-96.3961,3.743,1111122 
TCOON,ioos:station:TCOON:057:1,2017-12-05T23:18:00Z,28.4460,-96.3961,3.752,1111122 
TCOON,ioos:station:TCOON:057:1,2017-12-06T00:18:00Z,28.4460,-96.3961,3.775,1111122 
TCOON,ioos:station:TCOON:057:1,2017-12-06T01:18:00Z,28.4460,-96.3961,3.795,1111122 
TCOON,ioos:station:TCOON:057:1,2017-12-06T02:18:00Z,28.4460,-96.3961,3.842,1111122 
TCOON,ioos:station:TCOON:057:1,2017-12-06T03:18:00Z,28.4460,-96.3961,3.863,1111122 
TCOON,ioos:station:TCOON:057:1,2017-12-06T04:18:00Z,28.4460,-96.3961,3.882,1111122 
TCOON,ioos:station:TCOON:057:1,2017-12-06T05:18:00Z,28.4460,-96.3961,3.897,1111122 
TCOON,ioos:station:TCOON:057:1,2017-12-06T06:18:00Z,28.4460,-96.3961,3.951,1111122 
TCOON,ioos:station:TCOON:057:1,2017-12-06T07:18:00Z,28.4460,-96.3961,3.917,1111122 
TCOON,ioos:station:TCOON:057:1,2017-12-06T08:18:00Z,28.4460,-96.3961,3.927,1111122 
TCOON,ioos:station:TCOON:057:1,2017-12-06T09:18:00Z,28.4460,-96.3961,3.977,1111122 
TCOON,ioos:station:TCOON:057:1,2017-12-06T10:18:00Z,28.4460,-96.3961,3.903,1111122 
TCOON,ioos:station:TCOON:057:1,2017-12-06T11:18:00Z,28.4460,-96.3961,3.872,1111122 
TCOON,ioos:station:TCOON:057:1,2017-12-06T12:18:00Z,28.4460,-96.3961,3.871,1111122 
TCOON,ioos:station:TCOON:057:1,2017-12-06T13:24:00Z,28.4460,-96.3961,3.825,1111122 
TCOON,ioos:station:TCOON:057:1,2017-12-06T14:24:00Z,28.4460,-96.3961,3.724,1111122 
TCOON,ioos:station:TCOON:057:1,2017-12-06T16:36:00Z,28.4460,-96.3961,3.618,1111122 
TCOON,ioos:station:TCOON:057:1,2017-12-06T17:24:00Z,28.4460,-96.3961,3.617,1111122 
TCOON,ioos:station:TCOON:057:1,2017-12-06T18:24:00Z,28.4460,-96.3961,3.625,1111122 
TCOON,ioos:station:TCOON:057:1,2017-12-06T19:24:00Z,28.4460,-96.3961,3.628,1111122 
TCOON,ioos:station:TCOON:057:1,2017-12-06T20:18:00Z,28.4460,-96.3961,3.61,1111122 
TCOON,ioos:station:TCOON:057:1,2017-12-06T21:18:00Z,28.4460,-96.3961,3.707,1111122 
TCOON,ioos:station:TCOON:057:1,2017-12-06T22:18:00Z,28.4460,-96.3961,3.731,1111122 
TCOON,ioos:station:TCOON:057:1,2017-12-06T23:18:00Z,28.4460,-96.3961,3.754,1111122 
TCOON,ioos:station:TCOON:057:1,2017-12-07T00:18:00Z,28.4460,-96.3961,3.772,1111122 
TCOON,ioos:station:TCOON:057:1,2017-12-07T01:18:00Z,28.4460,-96.3961,3.797,1111122 
TCOON,ioos:station:TCOON:057:1,2017-12-07T02:18:00Z,28.4460,-96.3961,3.829,1111122 
TCOON,ioos:station:TCOON:057:1,2017-12-07T03:18:00Z,28.4460,-96.3961,3.855,1111122 
TCOON,ioos:station:TCOON:057:1,2017-12-07T04:18:00Z,28.4460,-96.3961,3.9,1111122 
TCOON,ioos:station:TCOON:057:1,2017-12-07T05:18:00Z,28.4460,-96.3961,3.916,1111122 
TCOON,ioos:station:TCOON:057:1,2017-12-07T06:18:00Z,28.4460,-96.3961,3.908,1111122 
TCOON,ioos:station:TCOON:057:1,2017-12-07T07:18:00Z,28.4460,-96.3961,3.939,1111122 
TCOON,ioos:station:TCOON:057:1,2017-12-07T08:18:00Z,28.4460,-96.3961,3.954,1111122 
TCOON,ioos:station:TCOON:057:1,2017-12-07T09:18:00Z,28.4460,-96.3961,3.935,1111122 
TCOON,ioos:station:TCOON:057:1,2017-12-07T10:18:00Z,28.4460,-96.3961,3.936,1111122 
TCOON,ioos:station:TCOON:057:1,2017-12-07T11:18:00Z,28.4460,-96.3961,3.934,1111122 
TCOON,ioos:station:TCOON:057:1,2017-12-07T12:18:00Z,28.4460,-96.3961,3.924,1111122 
TCOON,ioos:station:TCOON:057:1,2017-12-07T13:18:00Z,28.4460,-96.3961,3.913,1111122 
TCOON,ioos:station:TCOON:057:1,2017-12-07T14:18:00Z,28.4460,-96.3961,3.867,1111122 
TCOON,ioos:station:TCOON:057:1,2017-12-07T15:18:00Z,28.4460,-96.3961,3.802,1111122 
TCOON,ioos:station:TCOON:057:1,2017-12-07T16:18:00Z,28.4460,-96.3961,3.76,1111122 
TCOON,ioos:station:TCOON:057:1,2017-12-07T17:18:00Z,28.4460,-96.3961,3.719,1111122 
TCOON,ioos:station:TCOON:057:1,2017-12-07T18:18:00Z,28.4460,-96.3961,3.688,1111122 
TCOON,ioos:station:TCOON:057:1,2017-12-07T19:18:00Z,28.4460,-96.3961,3.701,1111122 
TCOON,ioos:station:TCOON:057:1,2017-12-07T20:18:00Z,28.4460,-96.3961,3.671,1111122 
TCOON,ioos:station:TCOON:057:1,2017-12-07T22:18:00Z,28.4460,-96.3961,3.721,1111122 
TCOON,ioos:station:TCOON:057:1,2017-12-07T23:18:00Z,28.4460,-96.3961,3.764,1111122 
TCOON,ioos:station:TCOON:057:1,2017-12-08T00:18:00Z,28.4460,-96.3961,3.825,1111122 
TCOON,ioos:station:TCOON:057:1,2017-12-08T01:18:00Z,28.4460,-96.3961,3.85,1111122 
TCOON,ioos:station:TCOON:057:1,2017-12-08T02:18:00Z,28.4460,-96.3961,3.859,1111122 
TCOON,ioos:station:TCOON:057:1,2017-12-08T03:18:00Z,28.4460,-96.3961,3.903,1111122 
TCOON,ioos:station:TCOON:057:1,2017-12-08T04:18:00Z,28.4460,-96.3961,3.932,1111122 
TCOON,ioos:station:TCOON:057:1,2017-12-08T05:18:00Z,28.4460,-96.3961,3.961,1111122 
TCOON,ioos:station:TCOON:057:1,2017-12-08T06:18:00Z,28.4460,-96.3961,3.941,1111122 
TCOON,ioos:station:TCOON:057:1,2017-12-08T07:18:00Z,28.4460,-96.3961,3.95,1111122 
TCOON,ioos:station:TCOON:057:1,2017-12-08T08:18:00Z,28.4460,-96.3961,3.923,1111122 
TCOON,ioos:station:TCOON:057:1,2017-12-08T09:18:00Z,28.4460,-96.3961,3.884,1111122 
TCOON,ioos:station:TCOON:057:1,2017-12-08T10:18:00Z,28.4460,-96.3961,3.867,1111122 
TCOON,ioos:station:TCOON:057:1,2017-12-08T11:18:00Z,28.4460,-96.3961,3.834,1111122 
TCOON,ioos:station:TCOON:057:1,2017-12-08T12:18:00Z,28.4460,-96.3961,3.841,1111122 
TCOON,ioos:station:TCOON:057:1,2017-12-08T13:18:00Z,28.4460,-96.3961,3.76,1111122 
TCOON,ioos:station:TCOON:057:1,2017-12-08T14:18:00Z,28.4460,-96.3961,3.733,1111122 
TCOON,ioos:station:TCOON:057:1,2017-12-08T15:18:00Z,28.4460,-96.3961,3.697,1111122 
TCOON,ioos:station:TCOON:057:1,2017-12-08T16:18:00Z,28.4460,-96.3961,3.691,1111122 
TCOON,ioos:station:TCOON:057:1,2017-12-08T17:18:00Z,28.4460,-96.3961,3.652,1111122 
TCOON,ioos:station:TCOON:057:1,2017-12-08T18:18:00Z,28.4460,-96.3961,3.612,1111122 
TCOON,ioos:station:TCOON:057:1,2017-12-08T19:18:00Z,28.4460,-96.3961,3.595,1111122 
TCOON,ioos:station:TCOON:057:1,2017-12-08T20:24:00Z,28.4460,-96.3961,3.594,1111122 
TCOON,ioos:station:TCOON:057:1,2017-12-08T21:18:00Z,28.4460,-96.3961,3.583,1111122 
TCOON,ioos:station:TCOON:057:1,2017-12-08T22:18:00Z,28.4460,-96.3961,3.575,1111122 
TCOON,ioos:station:TCOON:057:1,2017-12-08T23:18:00Z,28.4460,-96.3961,3.61,1111122 
TCOON,ioos:station:TCOON:057:1,2017-12-09T00:18:00Z,28.4460,-96.3961,3.636,1111122 
TCOON,ioos:station:TCOON:057:1,2017-12-09T01:18:00Z,28.4460,-96.3961,3.664,1111122 
TCOON,ioos:station:TCOON:057:1,2017-12-09T02:18:00Z,28.4460,-96.3961,3.714,1111122 
TCOON,ioos:station:TCOON:057:1,2017-12-09T03:18:00Z,28.4460,-96.3961,3.737,1111122 
TCOON,ioos:station:TCOON:057:1,2017-12-09T04:18:00Z,28.4460,-96.3961,3.774,1111122 
TCOON,ioos:station:TCOON:057:1,2017-12-09T05:18:00Z,28.4460,-96.3961,3.796,1111122 
TCOON,ioos:station:TCOON:057:1,2017-12-09T06:18:00Z,28.4460,-96.3961,3.795,1111122 
TCOON,ioos:station:TCOON:057:1,2017-12-09T07:18:00Z,28.4460,-96.3961,3.802,1111122 
TCOON,ioos:station:TCOON:057:1,2017-12-09T08:36:00Z,28.4460,-96.3961,3.802,1111122 
TCOON,ioos:station:TCOON:057:1,2017-12-09T09:18:00Z,28.4460,-96.3961,3.778,1111122 
TCOON,ioos:station:TCOON:057:1,2017-12-09T10:18:00Z,28.4460,-96.3961,3.773,1111122 
TCOON,ioos:station:TCOON:057:1,2017-12-09T11:18:00Z,28.4460,-96.3961,3.753,1111122 
TCOON,ioos:station:TCOON:057:1,2017-12-09T12:18:00Z,28.4460,-96.3961,3.747,1111122 
TCOON,ioos:station:TCOON:057:1,2017-12-09T13:18:00Z,28.4460,-96.3961,3.727,1111122 
TCOON,ioos:station:TCOON:057:1,2017-12-09T14:18:00Z,28.4460,-96.3961,3.695,1111122 
TCOON,ioos:station:TCOON:057:1,2017-12-09T15:18:00Z,28.4460,-96.3961,3.676,1111122 
TCOON,ioos:station:TCOON:057:1,2017-12-09T16:18:00Z,28.4460,-96.3961,3.655,1111122 
TCOON,ioos:station:TCOON:057:1,2017-12-09T17:18:00Z,28.4460,-96.3961,3.611,1111122 
TCOON,ioos:station:TCOON:057:1,2017-12-09T18:18:00Z,28.4460,-96.3961,3.582,1111122 
TCOON,ioos:station:TCOON:057:1,2017-12-09T19:18:00Z,28.4460,-96.3961,3.545,1111122 
TCOON,ioos:station:TCOON:057:1,2017-12-09T20:18:00Z,28.4460,-96.3961,3.529,1111122 
TCOON,ioos:station:TCOON:057:1,2017-12-09T21:18:00Z,28.4460,-96.3961,3.504,1111122 
TCOON,ioos:station:TCOON:057:1,2017-12-09T22:18:00Z,28.4460,-96.3961,3.485,1111122 
TCOON,ioos:station:TCOON:057:1,2017-12-09T23:18:00Z,28.4460,-96.3961,3.486,1111122 
TCOON,ioos:station:TCOON:057:1,2017-12-10T00:18:00Z,28.4460,-96.3961,3.483,1111122 
TCOON,ioos:station:TCOON:057:1,2017-12-10T01:18:00Z,28.4460,-96.3961,3.494,1111122 
TCOON,ioos:station:TCOON:057:1,2017-12-10T02:18:00Z,28.4460,-96.3961,3.518,1111122 
TCOON,ioos:station:TCOON:057:1,2017-12-10T03:18:00Z,28.4460,-96.3961,3.532,1111122 
TCOON,ioos:station:TCOON:057:1,2017-12-10T04:18:00Z,28.4460,-96.3961,3.551,1111122 
TCOON,ioos:station:TCOON:057:1,2017-12-10T05:18:00Z,28.4460,-96.3961,3.568,1111122 
TCOON,ioos:station:TCOON:057:1,2017-12-10T06:18:00Z,28.4460,-96.3961,3.584,1111122 
TCOON,ioos:station:TCOON:057:1,2017-12-10T07:18:00Z,28.4460,-96.3961,3.589,1111122 
TCOON,ioos:station:TCOON:057:1,2017-12-10T08:18:00Z,28.4460,-96.3961,3.59,1111122 
TCOON,ioos:station:TCOON:057:1,2017-12-10T09:18:00Z,28.4460,-96.3961,3.584,1111122 
TCOON,ioos:station:TCOON:057:1,2017-12-10T10:18:00Z,28.4460,-96.3961,3.575,1111122 
TCOON,ioos:station:TCOON:057:1,2017-12-10T11:18:00Z,28.4460,-96.3961,3.552,1111122 
TCOON,ioos:station:TCOON:057:1,2017-12-10T12:18:00Z,28.4460,-96.3961,3.547,1111122 
TCOON,ioos:station:TCOON:057:1,2017-12-10T13:18:00Z,28.4460,-96.3961,3.535,1111122 
TCOON,ioos:station:TCOON:057:1,2017-12-10T14:18:00Z,28.4460,-96.3961,3.517,1111122 
TCOON,ioos:station:TCOON:057:1,2017-12-10T15:18:00Z,28.4460,-96.3961,3.494,1111122 
TCOON,ioos:station:TCOON:057:1,2017-12-10T16:18:00Z,28.4460,-96.3961,3.492,1111122 
TCOON,ioos:station:TCOON:057:1,2017-12-10T17:18:00Z,28.4460,-96.3961,3.467,1111122 
TCOON,ioos:station:TCOON:057:1,2017-12-10T18:18:00Z,28.4460,-96.3961,3.438,1111122 
TCOON,ioos:station:TCOON:057:1,2017-12-10T19:18:00Z,28.4460,-96.3961,3.435,1111122 
TCOON,ioos:station:TCOON:057:1,2017-12-10T20:18:00Z,28.4460,-96.3961,3.43,1111122 
TCOON,ioos:station:TCOON:057:1,2017-12-10T21:18:00Z,28.4460,-96.3961,3.429,1111122 
TCOON,ioos:station:TCOON:057:1,2017-12-10T22:18:00Z,28.4460,-96.3961,3.422,1111122 
TCOON,ioos:station:TCOON:057:1,2017-12-10T23:18:00Z,28.4460,-96.3961,3.425,1111122 
TCOON,ioos:station:TCOON:057:1,2017-12-11T00:18:00Z,28.4460,-96.3961,3.425,1111122 
TCOON,ioos:station:TCOON:057:1,2017-12-11T01:18:00Z,28.4460,-96.3961,3.441,1111122 
TCOON,ioos:station:TCOON:057:1,2017-12-11T02:18:00Z,28.4460,-96.3961,3.455,1111122 
TCOON,ioos:station:TCOON:057:1,2017-12-11T03:18:00Z,28.4460,-96.3961,3.476,1111122 
TCOON,ioos:station:TCOON:057:1,2017-12-11T04:18:00Z,28.4460,-96.3961,3.498,1111122 
TCOON,ioos:station:TCOON:057:1,2017-12-11T05:18:00Z,28.4460,-96.3961,3.515,1111122 
TCOON,ioos:station:TCOON:057:1,2017-12-11T06:18:00Z,28.4460,-96.3961,3.514,1111122 
TCOON,ioos:station:TCOON:057:1,2017-12-11T07:18:00Z,28.4460,-96.3961,3.518,1111122 
TCOON,ioos:station:TCOON:057:1,2017-12-11T08:18:00Z,28.4460,-96.3961,3.505,1111122 
TCOON,ioos:station:TCOON:057:1,2017-12-11T09:18:00Z,28.4460,-96.3961,3.492,1111122 
TCOON,ioos:station:TCOON:057:1,2017-12-11T10:18:00Z,28.4460,-96.3961,3.473,1111122 
TCOON,ioos:station:TCOON:057:1,2017-12-11T11:18:00Z,28.4460,-96.3961,3.443,1111122 
TCOON,ioos:station:TCOON:057:1,2017-12-11T12:18:00Z,28.4460,-96.3961,3.432,1111122 
TCOON,ioos:station:TCOON:057:1,2017-12-11T13:18:00Z,28.4460,-96.3961,3.414,1111122 
TCOON,ioos:station:TCOON:057:1,2017-12-11T14:18:00Z,28.4460,-96.3961,3.406,1111122 
TCOON,ioos:station:TCOON:057:1,2017-12-11T15:18:00Z,28.4460,-96.3961,3.387,1111122 
TCOON,ioos:station:TCOON:057:1,2017-12-11T16:18:00Z,28.4460,-96.3961,3.369,1111122 
TCOON,ioos:station:TCOON:057:1,2017-12-11T17:18:00Z,28.4460,-96.3961,3.368,1111122 
TCOON,ioos:station:TCOON:057:1,2017-12-11T18:18:00Z,28.4460,-96.3961,3.351,1111122 
TCOON,ioos:station:TCOON:057:1,2017-12-11T19:18:00Z,28.4460,-96.3961,3.362,1111122 
TCOON,ioos:station:TCOON:057:1,2017-12-11T20:18:00Z,28.4460,-96.3961,3.344,1111122 
TCOON,ioos:station:TCOON:057:1,2017-12-11T21:18:00Z,28.4460,-96.3961,3.359,1111122 
TCOON,ioos:station:TCOON:057:1,2017-12-11T22:18:00Z,28.4460,-96.3961,3.359,1111122 
TCOON,ioos:station:TCOON:057:1,2017-12-11T23:18:00Z,28.4460,-96.3961,3.341,1111122 
TCOON,ioos:station:TCOON:057:1,2017-12-12T00:18:00Z,28.4460,-96.3961,3.337,1111122 
TCOON,ioos:station:TCOON:057:1,2017-12-12T05:18:00Z,28.4460,-96.3961,3.412,1111122 
TCOON,ioos:station:TCOON:057:1,2017-12-12T06:18:00Z,28.4460,-96.3961,3.429,1111122 
TCOON,ioos:station:TCOON:057:1,2017-12-12T07:18:00Z,28.4460,-96.3961,3.425,1111122 
TCOON,ioos:station:TCOON:057:1,2017-12-12T08:18:00Z,28.4460,-96.3961,3.408,1111122 
TCOON,ioos:station:TCOON:057:1,2017-12-12T09:18:00Z,28.4460,-96.3961,3.409,1111122 
TCOON,ioos:station:TCOON:057:1,2017-12-12T10:18:00Z,28.4460,-96.3961,3.393,1111122 
TCOON,ioos:station:TCOON:057:1,2017-12-12T11:18:00Z,28.4460,-96.3961,3.377,1111122 
TCOON,ioos:station:TCOON:057:1,2017-12-12T12:18:00Z,28.4460,-96.3961,3.367,1111122 
TCOON,ioos:station:TCOON:057:1,2017-12-12T13:18:00Z,28.4460,-96.3961,3.362,1111122 
TCOON,ioos:station:TCOON:057:1,2017-12-12T14:18:00Z,28.4460,-96.3961,3.369,1111122 
TCOON,ioos:station:TCOON:057:1,2017-12-12T15:18:00Z,28.4460,-96.3961,3.351,1111122 
TCOON,ioos:station:TCOON:057:1,2017-12-12T16:18:00Z,28.4460,-96.3961,3.345,1111122 
TCOON,ioos:station:TCOON:057:1,2017-12-12T17:18:00Z,28.4460,-96.3961,3.359,1111122 
TCOON,ioos:station:TCOON:057:1,2017-12-12T18:18:00Z,28.4460,-96.3961,3.335,1111122 
TCOON,ioos:station:TCOON:057:1,2017-12-12T19:24:00Z,28.4460,-96.3961,3.348,1111122 
TCOON,ioos:station:TCOON:057:1,2017-12-12T20:18:00Z,28.4460,-96.3961,3.36,1111122 
TCOON,ioos:station:TCOON:057:1,2017-12-12T21:18:00Z,28.4460,-96.3961,3.356,1111122 
TCOON,ioos:station:TCOON:057:1,2017-12-12T22:18:00Z,28.4460,-96.3961,3.357,1111122 
TCOON,ioos:station:TCOON:057:1,2017-12-13T09:18:00Z,28.4460,-96.3961,3.321,1111122 
TCOON,ioos:station:TCOON:057:1,2017-12-13T10:18:00Z,28.4460,-96.3961,3.321,1111122 
TCOON,ioos:station:TCOON:057:1,2017-12-13T11:18:00Z,28.4460,-96.3961,3.302,1111122 
TCOON,ioos:station:TCOON:057:1,2017-12-13T12:18:00Z,28.4460,-96.3961,3.288,1111122 
TCOON,ioos:station:TCOON:057:1,2017-12-13T13:18:00Z,28.4460,-96.3961,3.276,1111122 